"Period start","avg(HW err(1)/warn(2) (#))","avg(Visibility (m))","avg(Weather code (#))","avg(Precip intensity (mm/h))","min(HW err(1)/warn(2) (#))","max(HW err(1)/warn(2) (#))","std(HW err(1)/warn(2) (#))","med(HW err(1)/warn(2) (#))","min(Visibility (m))","max(Visibility (m))","std(Visibility (m))","med(Visibility (m))","min(Weather code (#))","max(Weather code (#))","std(Weather code (#))","med(Weather code (#))","min(Precip intensity (mm/h))","max(Precip intensity (mm/h))","std(Precip intensity (mm/h))","med(Precip intensity (mm/h))"
2013-09-10 00:00:00,2,47769,0,0.00,2,2,0,2,39946,50000,3368,49606,0,0,0,0,0.00,0.00,0.00,0.00
2013-09-10 00:10:00,2,48711,0,0.00,2,2,0,2,39796,50000,3025,50000,0,0,0,0,0.00,0.00,0.00,0.00
2013-09-10 00:20:00,2,48712,0,0.00,2,2,0,2,41659,50000,2509,50000,0,0,0,0,0.00,0.00,0.00,0.00
2013-09-10 00:30:00,2,47497,0,0.00,2,2,0,2,42726,50000,3122,50000,0,0,0,0,0.00,0.00,0.00,0.00
2013-09-10 00:40:00,2,49997,0,0.00,2,2,0,2,49971,50000,9,50000,0,0,0,0,0.00,0.00,0.00,0.00
2013-09-10 00:50:00,2,49492,0,0.00,2,2,0,2,45664,50000,1295,50000,0,0,0,0,0.00,0.00,0.00,0.00
2013-09-10 01:00:00,2,48649,0,0.00,2,2,0,2,44534,50000,1860,49642,0,0,0,0,0.00,0.00,0.00,0.00
2013-09-10 01:10:00,2,43123,47,0.28,2,2,0,2,35988,49593,5016,45916,0,61,18,51,0.00,0.70,0.22,0.20
2013-09-10 01:20:00,2,35713,57,0.57,2,2,0,2,22962,48348,8245,36814,51,61,5,61,0.10,1.55,0.45,0.42
2013-09-10 01:30:00,2,39251,61,0.68,2,2,0,2,30607,47684,5392,40392,61,61,0,61,0.25,1.75,0.43,0.62
2013-09-10 01:40:00,2,39036,61,0.82,2,2,0,2,28783,47621,5555,40348,61,61,0,61,0.15,2.35,0.59,0.75
2013-09-10 01:50:00,2,30517,55,0.35,2,2,0,2,19528,41211,6580,29822,51,61,5,51,0.15,0.65,0.14,0.33
2013-09-10 02:00:00,2,38691,55,0.17,2,2,0,2,17835,50000,12272,41920,41,71,11,51,0.00,0.85,0.25,0.05
2013-09-10 02:10:00,2,36035,63,0.47,2,2,0,2,15371,50000,13779,42619,61,71,4,61,0.10,1.35,0.41,0.28
2013-09-10 02:20:00,2,45511,51,0.19,2,2,0,2,39595,50000,3286,46568,41,61,9,51,0.00,0.40,0.14,0.17
2013-09-10 02:30:00,2,50000,26,0.00,2,2,0,2,50000,50000,0,50000,0,61,27,20,0.00,0.00,0.00,0.00
2013-09-10 02:40:00,2,47377,40,0.31,2,2,0,2,40045,50000,3262,48786,0,61,26,51,0.00,1.00,0.33,0.20
2013-09-10 02:50:00,2,47799,51,0.27,2,2,0,2,42059,50000,2649,49444,51,51,0,51,0.10,0.45,0.11,0.23
2013-09-10 03:00:00,2,46151,51,0.45,2,2,0,2,31953,50000,6072,49756,41,61,6,51,0.05,1.15,0.35,0.30
2013-09-10 03:10:00,2,39145,51,0.28,2,2,0,2,26151,49659,7083,39428,51,51,0,51,0.00,0.65,0.22,0.25
2013-09-10 03:20:00,2,44426,45,0.26,2,2,0,2,37636,50000,3744,44654,41,51,5,41,0.00,0.70,0.22,0.20
2013-09-10 03:30:00,2,49174,44,0.32,2,2,0,2,44378,50000,1782,50000,41,51,5,41,0.05,0.55,0.16,0.30
2013-09-10 03:40:00,2,48294,54,0.31,2,2,0,2,37236,50000,3902,50000,51,61,5,51,0.00,1.20,0.33,0.17
2013-09-10 03:50:00,2,35543,41,0.10,2,2,0,2,24279,48997,8602,33610,0,61,21,51,0.00,0.35,0.12,0.03
2013-09-10 04:00:00,2,32941,6,0.00,2,2,0,2,16878,50000,13024,32562,0,61,18,0,0.00,0.00,0.00,0.00
2013-09-10 04:10:00,2,44025,56,0.33,2,2,0,2,29896,50000,6875,46812,51,61,5,56,0.00,1.40,0.39,0.28
2013-09-10 04:20:00,2,48519,12,0.00,2,2,0,2,43464,50000,2128,49664,0,61,24,0,0.00,0.00,0.00,0.00
2013-09-10 04:30:00,2,49209,0,0.00,2,2,0,2,46379,50000,1369,50000,0,0,0,0,0.00,0.00,0.00,0.00
2013-09-10 04:40:00,2,44191,47,0.38,2,2,0,2,24580,50000,7252,47385,0,61,24,61,0.00,1.15,0.38,0.23
2013-09-10 04:50:00,2,38381,50,0.34,2,2,0,2,30697,50000,6728,35564,41,51,3,51,0.20,0.50,0.12,0.35
2013-09-10 05:00:00,2,39255,51,0.41,2,2,0,2,29340,50000,6759,38216,51,52,0,51,0.20,0.60,0.12,0.40
2013-09-10 05:10:00,2,50000,25,0.06,2,2,0,2,50000,50000,0,50000,0,41,20,41,0.00,0.30,0.10,0.00
2013-09-10 05:20:00,2,50000,0,0.00,2,2,0,2,50000,50000,0,50000,0,0,0,0,0.00,0.00,0.00,0.00
2013-09-10 05:30:00,2,50000,0,0.00,2,2,0,2,50000,50000,0,50000,0,0,0,0,0.00,0.00,0.00,0.00
2013-09-10 05:40:00,2,50000,0,0.00,2,2,0,2,50000,50000,0,50000,0,0,0,0,0.00,0.00,0.00,0.00
2013-09-10 05:50:00,2,50000,0,0.00,2,2,0,2,50000,50000,0,50000,0,0,0,0,0.00,0.00,0.00,0.00
2013-09-10 06:00:00,2,50000,0,0.00,2,2,0,2,50000,50000,0,50000,0,0,0,0,0.00,0.00,0.00,0.00
2013-09-10 06:10:00,2,47000,0,0.00,2,2,0,2,42731,50000,2744,46698,0,0,0,0,0.00,0.00,0.00,0.00
2013-09-10 06:20:00,2,32110,0,0.00,2,2,0,2,21067,46187,8578,28315,0,0,0,0,0.00,0.00,0.00,0.00
2013-09-10 06:30:00,2,44647,8,0.02,2,2,0,2,40237,50000,3154,45168,0,41,16,0,0.00,0.15,0.05,0.00
2013-09-10 06:40:00,2,49910,51,0.19,2,2,0,2,49103,50000,269,50000,51,51,0,51,0.05,0.50,0.13,0.15
2013-09-10 06:50:00,2,49936,55,0.12,2,2,0,2,49356,50000,193,50000,51,61,5,51,0.00,0.40,0.15,0.05
2013-09-10 07:00:00,2,50000,0,0.00,2,2,0,2,50000,50000,0,50000,0,0,0,0,0.00,0.00,0.00,0.00
2013-09-10 07:10:00,2,49695,0,0.00,2,2,0,2,46950,50000,915,50000,0,0,0,0,0.00,0.00,0.00,0.00
2013-09-10 07:20:00,2,50000,0,0.00,2,2,0,2,50000,50000,0,50000,0,0,0,0,0.00,0.00,0.00,0.00
2013-09-10 07:30:00,2,50000,0,0.00,2,2,0,2,50000,50000,0,50000,0,0,0,0,0.00,0.00,0.00,0.00
2013-09-10 07:40:00,2,40889,0,0.00,2,2,0,2,6698,50000,16064,50000,0,0,0,0,0.00,0.00,0.00,0.00
2013-09-10 07:50:00,2,14790,0,0.00,2,2,0,2,6536,39137,9724,11898,0,0,0,0,0.00,0.00,0.00,0.00
2013-09-10 08:00:00,2,48135,8,0.02,2,2,0,2,44655,50000,2260,49816,0,41,16,0,0.00,0.15,0.05,0.00
2013-09-10 08:10:00,2,40761,48,0.38,2,2,0,2,15567,50000,10696,43193,41,61,8,46,0.00,0.95,0.31,0.45
2013-09-10 08:20:00,2,26890,47,0.11,2,2,0,2,8662,48228,15271,27400,41,52,5,51,0.00,0.70,0.20,0.05
2013-09-10 08:30:00,2,16922,4,0.00,2,2,0,2,7875,32899,9097,13095,0,41,12,0,0.00,0.00,0.00,0.00
2013-09-10 08:40:00,2,48844,0,0.00,2,2,0,2,43520,50000,2093,50000,0,0,0,0,0.00,0.00,0.00,0.00
2013-09-10 08:50:00,2,50000,0,0.00,2,2,0,2,50000,50000,0,50000,0,0,0,0,0.00,0.00,0.00,0.00
2013-09-10 09:00:00,2,50000,0,0.00,2,2,0,2,50000,50000,0,50000,0,0,0,0,0.00,0.00,0.00,0.00
2013-09-10 09:10:00,2,48911,0,0.00,2,2,0,2,41273,50000,2598,50000,0,0,0,0,0.00,0.00,0.00,0.00
2013-09-10 09:20:00,2,38928,0,0.00,2,2,0,2,13721,50000,13880,46927,0,0,0,0,0.00,0.00,0.00,0.00
2013-09-10 09:30:00,2,24691,0,0.00,2,2,0,2,10726,43501,10125,21292,0,0,0,0,0.00,0.00,0.00,0.00
2013-09-10 09:40:00,2,35291,0,0.00,2,2,0,2,23996,46881,8760,34172,0,0,0,0,0.00,0.00,0.00,0.00
2013-09-10 09:50:00,2,31299,18,0.08,2,2,0,2,26306,42342,4418,29704,0,51,23,0,0.00,0.30,0.11,0.00
2013-09-10 10:00:00,2,42395,49,0.15,2,2,0,2,32203,50000,5472,43421,41,51,4,51,0.05,0.55,0.14,0.10
2013-09-10 10:10:00,2,46270,51,0.31,2,2,0,2,37093,50000,4668,48200,51,52,0,51,0.05,0.80,0.25,0.20
2013-09-10 10:20:00,2,49003,51,0.35,2,2,0,2,44050,50000,1736,49714,51,52,0,51,0.15,0.65,0.16,0.33
2013-09-10 10:30:00,2,45889,51,0.43,2,2,0,2,32138,50000,5963,49319,51,51,0,51,0.20,1.00,0.25,0.33
2013-09-10 10:40:00,2,40803,51,0.31,2,2,0,2,21039,50000,11924,47910,51,51,0,51,0.10,0.75,0.17,0.30
2013-09-10 10:50:00,2,46014,51,0.18,2,2,0,2,35655,50000,4936,48248,51,51,0,51,0.05,0.45,0.12,0.12
2013-09-10 11:00:00,2,47873,44,0.05,2,2,0,2,43908,50000,2202,48452,41,51,5,41,0.00,0.20,0.06,0.05
2013-09-10 11:10:00,2,47845,48,0.22,2,2,0,2,41979,50000,2748,49552,41,51,5,51,0.10,0.35,0.09,0.20
2013-09-10 11:20:00,2,49092,47,0.11,2,2,0,2,43352,50000,1973,50000,41,51,5,51,0.00,0.20,0.06,0.10
2013-09-10 11:30:00,2,41490,29,0.01,2,2,0,2,24651,50000,9703,46930,0,41,19,41,0.00,0.05,0.02,0.00
2013-09-10 11:40:00,2,50000,0,0.00,2,2,0,2,50000,50000,0,50000,0,0,0,0,0.00,0.00,0.00,0.00
2013-09-10 11:50:00,2,50000,0,0.00,2,2,0,2,50000,50000,0,50000,0,0,0,0,0.00,0.00,0.00,0.00
2013-09-10 12:00:00,2,50000,0,0.00,2,2,0,2,50000,50000,0,50000,0,0,0,0,0.00,0.00,0.00,0.00
2013-09-10 12:10:00,2,48441,0,0.00,2,2,0,2,41633,50000,2530,50000,0,0,0,0,0.00,0.00,0.00,0.00
2013-09-10 12:20:00,2,49617,0,0.00,2,2,0,2,47571,50000,794,50000,0,0,0,0,0.00,0.00,0.00,0.00
2013-09-10 12:30:00,2,49866,0,0.00,2,2,0,2,48661,50000,402,50000,0,0,0,0,0.00,0.00,0.00,0.00
2013-09-10 12:40:00,2,49965,0,0.00,2,2,0,2,49648,50000,106,50000,0,0,0,0,0.00,0.00,0.00,0.00
2013-09-10 12:50:00,2,50000,0,0.00,2,2,0,2,50000,50000,0,50000,0,0,0,0,0.00,0.00,0.00,0.00
2013-09-10 13:00:00,2,50000,0,0.00,2,2,0,2,50000,50000,0,50000,0,0,0,0,0.00,0.00,0.00,0.00
2013-09-10 13:10:00,2,50000,0,0.00,2,2,0,2,50000,50000,0,50000,0,0,0,0,0.00,0.00,0.00,0.00
2013-09-10 13:20:00,2,50000,0,0.00,2,2,0,2,50000,50000,0,50000,0,0,0,0,0.00,0.00,0.00,0.00
2013-09-10 13:30:00,2,50000,0,0.00,2,2,0,2,50000,50000,0,50000,0,0,0,0,0.00,0.00,0.00,0.00
2013-09-10 13:40:00,2,50000,0,0.00,2,2,0,2,50000,50000,0,50000,0,0,0,0,0.00,0.00,0.00,0.00
2013-09-10 13:50:00,2,50000,0,0.00,2,2,0,2,50000,50000,0,50000,0,0,0,0,0.00,0.00,0.00,0.00
2013-09-10 14:00:00,2,50000,0,0.00,2,2,0,2,50000,50000,0,50000,0,0,0,0,0.00,0.00,0.00,0.00
2013-09-10 14:10:00,2,50000,0,0.00,2,2,0,2,50000,50000,0,50000,0,0,0,0,0.00,0.00,0.00,0.00
2013-09-10 14:20:00,2,50000,0,0.00,2,2,0,2,50000,50000,0,50000,0,0,0,0,0.00,0.00,0.00,0.00
2013-09-10 14:30:00,2,50000,0,0.00,2,2,0,2,50000,50000,0,50000,0,0,0,0,0.00,0.00,0.00,0.00
2013-09-10 14:40:00,2,49955,0,0.00,2,2,0,2,49552,50000,134,50000,0,0,0,0,0.00,0.00,0.00,0.00
2013-09-10 14:50:00,2,50000,0,0.00,2,2,0,2,50000,50000,0,50000,0,0,0,0,0.00,0.00,0.00,0.00
2013-09-10 15:00:00,2,50000,0,0.00,2,2,0,2,50000,50000,0,50000,0,0,0,0,0.00,0.00,0.00,0.00
2013-09-10 15:10:00,2,50000,0,0.00,2,2,0,2,50000,50000,0,50000,0,0,0,0,0.00,0.00,0.00,0.00
2013-09-10 15:20:00,2,50000,0,0.00,2,2,0,2,50000,50000,0,50000,0,0,0,0,0.00,0.00,0.00,0.00
2013-09-10 15:30:00,2,50000,0,0.00,2,2,0,2,50000,50000,0,50000,0,0,0,0,0.00,0.00,0.00,0.00
2013-09-10 15:40:00,2,50000,0,0.00,2,2,0,2,50000,50000,0,50000,0,0,0,0,0.00,0.00,0.00,0.00
2013-09-10 15:50:00,2,50000,0,0.00,2,2,0,2,50000,50000,0,50000,0,0,0,0,0.00,0.00,0.00,0.00
2013-09-10 16:00:00,2,50000,0,0.00,2,2,0,2,50000,50000,0,50000,0,0,0,0,0.00,0.00,0.00,0.00
2013-09-10 16:10:00,2,50000,0,0.00,2,2,0,2,50000,50000,0,50000,0,0,0,0,0.00,0.00,0.00,0.00
2013-09-10 16:20:00,2,50000,0,0.00,2,2,0,2,50000,50000,0,50000,0,0,0,0,0.00,0.00,0.00,0.00
2013-09-10 16:30:00,2,50000,0,0.00,2,2,0,2,50000,50000,0,50000,0,0,0,0,0.00,0.00,0.00,0.00
2013-09-10 16:40:00,2,50000,0,0.00,2,2,0,2,50000,50000,0,50000,0,0,0,0,0.00,0.00,0.00,0.00
2013-09-10 16:50:00,2,50000,0,0.00,2,2,0,2,50000,50000,0,50000,0,0,0,0,0.00,0.00,0.00,0.00
2013-09-10 17:00:00,2,50000,0,0.00,2,2,0,2,50000,50000,0,50000,0,0,0,0,0.00,0.00,0.00,0.00
2013-09-10 17:10:00,2,50000,0,0.00,2,2,0,2,50000,50000,0,50000,0,0,0,0,0.00,0.00,0.00,0.00
2013-09-10 17:20:00,2,50000,0,0.00,2,2,0,2,50000,50000,0,50000,0,0,0,0,0.00,0.00,0.00,0.00
2013-09-10 17:30:00,2,50000,0,0.00,2,2,0,2,50000,50000,0,50000,0,0,0,0,0.00,0.00,0.00,0.00
2013-09-10 17:40:00,2,50000,0,0.00,2,2,0,2,50000,50000,0,50000,0,0,0,0,0.00,0.00,0.00,0.00
2013-09-10 17:50:00,2,50000,0,0.00,2,2,0,2,50000,50000,0,50000,0,0,0,0,0.00,0.00,0.00,0.00
2013-09-10 18:00:00,2,50000,0,0.00,2,2,0,2,50000,50000,0,50000,0,0,0,0,0.00,0.00,0.00,0.00
2013-09-10 18:10:00,2,50000,0,0.00,2,2,0,2,50000,50000,0,50000,0,0,0,0,0.00,0.00,0.00,0.00
2013-09-10 18:20:00,2,50000,0,0.00,2,2,0,2,50000,50000,0,50000,0,0,0,0,0.00,0.00,0.00,0.00
2013-09-10 18:30:00,2,50000,0,0.00,2,2,0,2,50000,50000,0,50000,0,0,0,0,0.00,0.00,0.00,0.00
2013-09-10 18:40:00,2,50000,0,0.00,2,2,0,2,50000,50000,0,50000,0,0,0,0,0.00,0.00,0.00,0.00
2013-09-10 18:50:00,2,49951,0,0.00,2,2,0,2,49512,50000,146,50000,0,0,0,0,0.00,0.00,0.00,0.00
2013-09-10 19:00:00,2,50000,0,0.00,2,2,0,2,50000,50000,0,50000,0,0,0,0,0.00,0.00,0.00,0.00
2013-09-10 19:10:00,2,50000,0,0.00,2,2,0,2,50000,50000,0,50000,0,0,0,0,0.00,0.00,0.00,0.00
2013-09-10 19:20:00,2,50000,0,0.00,2,2,0,2,50000,50000,0,50000,0,0,0,0,0.00,0.00,0.00,0.00
2013-09-10 19:30:00,2,50000,0,0.00,2,2,0,2,50000,50000,0,50000,0,0,0,0,0.00,0.00,0.00,0.00
2013-09-10 19:40:00,2,50000,0,0.00,2,2,0,2,50000,50000,0,50000,0,0,0,0,0.00,0.00,0.00,0.00
2013-09-10 19:50:00,2,50000,0,0.00,2,2,0,2,50000,50000,0,50000,0,0,0,0,0.00,0.00,0.00,0.00
2013-09-10 20:00:00,2,50000,0,0.00,2,2,0,2,50000,50000,0,50000,0,0,0,0,0.00,0.00,0.00,0.00
2013-09-10 20:10:00,2,50000,0,0.00,2,2,0,2,50000,50000,0,50000,0,0,0,0,0.00,0.00,0.00,0.00
2013-09-10 20:20:00,2,50000,0,0.00,2,2,0,2,50000,50000,0,50000,0,0,0,0,0.00,0.00,0.00,0.00
2013-09-10 20:30:00,2,50000,0,0.00,2,2,0,2,50000,50000,0,50000,0,0,0,0,0.00,0.00,0.00,0.00
2013-09-10 20:40:00,2,50000,0,0.00,2,2,0,2,50000,50000,0,50000,0,0,0,0,0.00,0.00,0.00,0.00
2013-09-10 20:50:00,2,50000,0,0.00,2,2,0,2,50000,50000,0,50000,0,0,0,0,0.00,0.00,0.00,0.00
2013-09-10 21:00:00,2,50000,0,0.00,2,2,0,2,50000,50000,0,50000,0,0,0,0,0.00,0.00,0.00,0.00
2013-09-10 21:10:00,2,50000,0,0.00,2,2,0,2,50000,50000,0,50000,0,0,0,0,0.00,0.00,0.00,0.00
2013-09-10 21:20:00,2,50000,0,0.00,2,2,0,2,50000,50000,0,50000,0,0,0,0,0.00,0.00,0.00,0.00
2013-09-10 21:30:00,2,50000,0,0.00,2,2,0,2,50000,50000,0,50000,0,0,0,0,0.00,0.00,0.00,0.00
2013-09-10 21:40:00,2,49954,0,0.00,2,2,0,2,49543,50000,137,50000,0,0,0,0,0.00,0.00,0.00,0.00
2013-09-10 21:50:00,2,50000,0,0.00,2,2,0,2,50000,50000,0,50000,0,0,0,0,0.00,0.00,0.00,0.00
2013-09-10 22:00:00,2,50000,0,0.00,2,2,0,2,50000,50000,0,50000,0,0,0,0,0.00,0.00,0.00,0.00
2013-09-10 22:10:00,2,50000,0,0.00,2,2,0,2,50000,50000,0,50000,0,0,0,0,0.00,0.00,0.00,0.00
2013-09-10 22:20:00,2,49248,0,0.00,2,2,0,2,43507,50000,1938,50000,0,0,0,0,0.00,0.00,0.00,0.00
2013-09-10 22:30:00,2,49847,0,0.00,2,2,0,2,48730,50000,380,50000,0,0,0,0,0.00,0.00,0.00,0.00
2013-09-10 22:40:00,2,46256,0,0.00,2,2,0,2,34081,50000,5876,50000,0,0,0,0,0.00,0.00,0.00,0.00
2013-09-10 22:50:00,2,48330,0,0.00,2,2,0,2,39551,50000,3131,50000,0,0,0,0,0.00,0.00,0.00,0.00
2013-09-10 23:00:00,2,49364,0,0.00,2,2,0,2,44612,50000,1600,50000,0,0,0,0,0.00,0.00,0.00,0.00
2013-09-10 23:10:00,2,50000,0,0.00,2,2,0,2,50000,50000,0,50000,0,0,0,0,0.00,0.00,0.00,0.00
2013-09-10 23:20:00,2,48359,0,0.00,2,2,0,2,42182,50000,2671,50000,0,0,0,0,0.00,0.00,0.00,0.00
2013-09-10 23:30:00,2,49744,0,0.00,2,2,0,2,47444,50000,767,50000,0,0,0,0,0.00,0.00,0.00,0.00
2013-09-10 23:40:00,2,49018,0,0.00,2,2,0,2,46499,50000,1321,50000,0,0,0,0,0.00,0.00,0.00,0.00
2013-09-10 23:50:00,2,49002,0,0.00,2,2,0,2,44890,50000,1791,50000,0,0,0,0,0.00,0.00,0.00,0.00
